This demonstration page uses our WeatherBlox Daily Observations layout. Learn more.

Left ArrowRight Arrow

34.74481, -87.66753

Hourly Observations for March 5, 2018

Temp ( °F °C ) Dew Point ( °F °C ) Humidity (%) Winds ( mph kmh ) Pressure ( in mb ) Visibility ( mi km ) Precip ( " mm )
12:53 am 00:53 Cloudy 52 11.1 41 5 66 66 E 5 7 30.06 1018 10 16 0.00 0.00
1:53 am 01:53 Cloudy 53 11.7 42 5.6 66 66 E 3 6 30.04 1017 10 16 0.00 0.00
2:53 am 02:53 Cloudy 53 11.7 40 4.4 61 61 E 3 6 30.04 1017 10 16 0.00 0.00
3:53 am 03:53 Cloudy 53 11.7 41 5 64 64 SSE 3 6 30.04 1017 10 16 0.00 0.00
4:53 am 04:53 Cloudy 53 11.7 43 6.1 69 69 NE 3 6 30.05 1018 10 16 0.00 0.00
5:53 am 05:53 Cloudy with Light Rain 52 11.1 44 6.7 75 75 W 3 6 30.08 1019 9 14 0.01 0.25
6:53 am 06:53 Cloudy with Light Rain 50 10 46 7.8 86 86 Calm 30.10 1019 7 11 0.06 1.52
7:53 am 07:53 Cloudy with Rain 50 10 47 8.3 89 89 SE 5 7 30.08 1019 5 8 0.05 1.27
8:53 am 08:53 Cloudy 51 10.6 47 8.3 86 86 ESE 7 11 30.07 1018 10 16 0.02 0.51
9:53 am 09:53 Cloudy with Light Rain 52 11.1 47 8.3 83 83 SE 9 15 30.06 1018 10 16 0.00 0.03
10:53 am 10:53 Cloudy 54 12.2 46 7.8 75 75 ESE 6 9 30.05 1018 10 16 0.00 0.03
11:53 am 11:53 Cloudy with Light Rain 55 12.8 48 8.9 77 77 SE 7 11 30.03 1017 10 16 0.02 0.51
12:53 pm 12:53 Cloudy 56 13.3 47 8.3 72 72 ESE 9 15 29.98 1015 10 16 0.00 0.03
1:53 pm 13:53 Cloudy 58 14.4 48 8.9 70 70 SSE 10 17 29.96 1015 10 16 0.00 0.00
2:53 pm 14:53 Cloudy 59 15 48 8.9 67 67 SE 9 15 29.93 1014 10 16 0.00 0.00
3:53 pm 15:53 Cloudy 60 15.6 48 8.9 65 65 SE 8 13 29.90 1013 10 16 0.00 0.00
4:53 pm 16:53 Cloudy 60 15.6 49 9.4 67 67 SE 7 11 29.90 1012 10 16 0.00 0.00
5:33 pm 17:33 Cloudy 60 15.6 49 9.4 67 67 ESE 7 11 29.85 1011 10 16 0.00 0.00
5:53 pm 17:53 Cloudy 59 15 49 9.4 69 69 ESE 8 13 29.88 1012 10 16 0.00 0.00
6:33 pm 18:33 Cloudy 59 15 50 10 72 72 E 5 7 29.85 1011 10 16 0.00 0.00
6:53 pm 18:53 Cloudy 59 15 50 10 72 72 ESE 5 7 29.88 1012 10 16 0.00 0.00
7:53 pm 19:53 Cloudy 58 14.4 51 10.6 78 78 ENE 5 7 29.87 1012 10 16 0.00 0.00
8:53 pm 20:53 Cloudy 58 14.4 51 10.6 78 78 E 5 7 29.86 1011 10 16 0.00 0.00
9:53 pm 21:53 Cloudy 59 15 50 10 72 72 SE 6 9 29.84 1010 10 16 0.00 0.00
10:53 pm 22:53 Mostly Cloudy 61 16.1 50 10 67 67 SSW 13 20 29.83 1010 10 16 0.00 0.00
11:36 pm 23:36 Cloudy 62 16.7 53 11.7 73 73 SSW 10 17 29.83 1010 10 16 0.00 0.00
11:53 pm 23:53 Cloudy 62 16.7 54 12.2 75 75 WSW 8 13 29.82 1010 10 16 0.00 0.00

Powered by AerisWeather